This is the latest recevied weather packets stored in our database for station/object EA3CO-11. If no packets are shown the sender has not sent any weather packets the latest 10 day(s).
| Time | Temp. | Humidity | Pressure | Rain* | Wind** | Luminosity | Snow |
|---|---|---|---|---|---|---|---|
| 1777933956 | 14.44° C | 82% | 1014 hPa | - | - | - | - |
| 1777933056 | 14.44° C | 83% | 1014 hPa | - | - | - | - |
| 1777932155 | 14.44° C | 87% | 1013.7 hPa | - | - | - | - |
| 1777931255 | 13.89° C | 94% | 1013.7 hPa | - | - | - | - |
| 1777930355 | 14.44° C | 99% | 1014 hPa | - | - | - | - |
| 1777929455 | 13.89° C | 100% | 1014.2 hPa | - | - | - | - |
| 1777928555 | 14.44° C | 100% | 1014.2 hPa | - | - | - | - |
| 1777927655 | 14.44° C | 100% | 1014.4 hPa | - | - | - | - |
| 1777926755 | 14.44° C | 100% | 1014.8 hPa | - | - | - | - |
| 1777925855 | 15° C | 100% | 1014.6 hPa | - | - | - | - |
| 1777924954 | 15.56° C | 100% | 1014.2 hPa | - | - | - | - |
| 1777924054 | 15.56° C | 100% | 1014 hPa | - | - | - | - |
| 1777923154 | 15.56° C | 100% | 1013.9 hPa | - | - | - | - |
| 1777922254 | 15° C | 100% | 1013.8 hPa | - | - | - | - |
| 1777921354 | 15.56° C | 100% | 1013.7 hPa | - | - | - | - |
| 1777920454 | 16.11° C | 100% | 1013.6 hPa | - | - | - | - |
| 1777919554 | 16.11° C | 100% | 1013.3 hPa | - | - | - | - |
| 1777918654 | 16.67° C | 100% | 1013.1 hPa | - | - | - | - |
| 1777917754 | 16.11° C | 100% | 1013.1 hPa | - | - | - | - |
| 1777916853 | 17.22° C | 97% | 1013 hPa | - | - | - | - |
| 1777915953 | 16.67° C | 100% | 1013.2 hPa | - | - | - | - |
| 1777915053 | 17.22° C | 95% | 1013.3 hPa | - | - | - | - |
| 1777914153 | 17.22° C | 100% | 1013.3 hPa | - | - | - | - |
| 1777913253 | 16.11° C | 100% | 1013.4 hPa | - | - | - | - |
| 1777912353 | 16.67° C | 99% | 1013.7 hPa | - | - | - | - |
* Rain since midnight (hover to see other rain measurements)
** Current wind speed in m/s (hover to see current wind gust speed)